Provo, UT

1:37 AM MDT on July 26, 2016 (GMT -0600)
Provo Municipal

Weather History for KPVU - April, 2014

Change the Weather History Date:

Thursday, April 10, 2014

  Actual Average Record
Temperature  
Mean Temperature 54 °F -  
Max Temperature 69 °F 56 °F 77 °F (2012)
Min Temperature 39 °F 33 °F 21 °F (1999)
Degree Days  
Heating Degree Days 11    
Growing Degree Days 4 (Base 50)    
Moisture  
Dew Point 36 °F    
Average Humidity 56    
Maximum Humidity 71    
Minimum Humidity 27    
Precipitation  
Precipitation 0.00 in - - ()
Sea Level Pressure  
Sea Level Pressure 30.04 in    
Wind  
Wind Speed 5 mph (ESE)    
Max Wind Speed 15 mph    
Max Gust Speed -    
Visibility 11 miles    
Events      
Averages and records for this station are not official NWS values.
T = Trace of Precipitation, MM = Missing Value Source: NWS Daily Summary

Daily Weather History Graph

Daily Weather History Graph

Search for Another Location

Airport or City:

Trip Planner

Search our weather history database for the weather conditions in past years. The results will help you decide how hot, cold, wet, or windy it might be!

Date:

Astronomy

Apr. 10, 2014 Rise Set
Actual Time 6:56 AM MDT 8:00 PM MDT
Civil Twilight 6:28 AM MDT 8:28 PM MDT
Nautical Twilight 5:55 AM MDT 9:01 PM MDT
Astronomical Twilight 5:20 AM MDT 9:36 PM MDT
Moon 3:47 PM MDT (4/10) 4:21 AM MDT (4/10)
Length of Visible Light 14h 00m
Length of Day
13h 04m
Waxing Gibbous, 80% of the Moon is Illuminated
Apr 10
Waxing Gibbous
Apr 15
Full
Apr 22
Last Quarter
Apr 29
New
May 6
First Quarter

Hourly Weather History & Observations

Time (MDT) Temp. Windchill Dew Point Humidity Pressure Visibility Wind Dir Wind Speed Gust Speed Precip Events Conditions
12:15 AM 48.2 °F - 35.6 °F 62% 29.99 in 10.0 mi SSE 5.8 mph - N/A   Clear
12:35 AM 51.8 °F - 37.4 °F 58% 30.00 in 10.0 mi Calm Calm - N/A   Clear
12:55 AM 50.0 °F - 37.4 °F 62% 30.00 in 10.0 mi East 4.6 mph - N/A   Clear
1:15 AM 50.0 °F - 33.8 °F 54% 30.01 in 10.0 mi North 5.8 mph - N/A   Clear
1:35 AM 48.2 °F - 33.8 °F 58% 30.02 in 10.0 mi NNW 4.6 mph - N/A   Clear
1:55 AM 50.0 °F - 35.6 °F 58% 30.02 in 10.0 mi Calm Calm - N/A   Clear
2:15 AM 53.6 °F - 39.2 °F 58% 30.02 in 10.0 mi Calm Calm - N/A   Clear
2:35 AM 48.2 °F - 37.4 °F 66% 30.03 in 10.0 mi SE 6.9 mph - N/A   Clear
2:55 AM 48.2 °F - 37.4 °F 66% 30.03 in 10.0 mi SE 6.9 mph - N/A   Clear
3:15 AM 48.2 °F - 35.6 °F 62% 30.03 in 10.0 mi SE 5.8 mph - N/A   Clear
3:35 AM 46.4 °F 44.3 °F 33.8 °F 62% 30.04 in 10.0 mi SSE 4.6 mph - N/A   Clear
3:55 AM 46.4 °F 45.2 °F 35.6 °F 66% 30.05 in 10.0 mi ESE 3.5 mph - N/A   Clear
4:15 AM 44.6 °F - 33.8 °F 66% 30.05 in 10.0 mi Calm Calm - N/A   Clear
4:35 AM 44.6 °F 41.4 °F 33.8 °F 66% 30.05 in 10.0 mi East 5.8 mph - N/A   Clear
4:55 AM 44.6 °F 42.2 °F 32.0 °F 61% 30.05 in 10.0 mi SE 4.6 mph - N/A   Clear
5:15 AM 44.6 °F 41.4 °F 33.8 °F 66% 30.05 in 10.0 mi SE 5.8 mph - N/A   Clear
5:55 AM 42.8 °F 39.3 °F 30.2 °F 61% 30.06 in 10.0 mi ESE 5.8 mph - N/A   Clear
6:15 AM 44.6 °F 41.4 °F 32.0 °F 61% 30.06 in 10.0 mi SE 5.8 mph - N/A   Clear
6:35 AM 42.8 °F 40.1 °F 32.0 °F 66% 30.07 in 10.0 mi SE 4.6 mph - N/A   Clear
6:55 AM 39.2 °F - 30.2 °F 70% 30.07 in 15.0 mi Calm Calm - N/A   Clear
7:57 AM 44.6 °F - 33.8 °F 66% 30.09 in 15.0 mi Calm Calm - N/A   Clear
11:51 AM 60.8 °F - 39.2 °F 45% 30.11 in 15.0 mi Variable 3.5 mph - N/A   Scattered Clouds
2:47 PM 69.8 °F - 37.4 °F 31% 30.07 in 15.0 mi WNW 15.0 mph - N/A   Scattered Clouds
3:49 PM 69.8 °F - 35.6 °F 28% 30.06 in 15.0 mi WNW 10.4 mph - N/A   Partly Cloudy
4:59 PM 69.8 °F - 37.4 °F 31% 30.05 in 15.0 mi WNW 11.5 mph - N/A   Partly Cloudy
5:50 PM 69.8 °F - 33.8 °F 27% 30.05 in 15.0 mi WNW 9.2 mph - N/A   Partly Cloudy
6:51 PM 68.0 °F - 33.8 °F 28% 30.04 in 15.0 mi NNW 10.4 mph - N/A   Partly Cloudy
7:51 PM 62.6 °F - 33.8 °F 34% 30.04 in 15.0 mi NW 8.1 mph - N/A   Clear
9:15 PM 55.4 °F - 42.8 °F 63% 30.04 in 10.0 mi East 4.6 mph - N/A   Clear
9:35 PM 57.2 °F - 39.2 °F 51% 30.04 in 10.0 mi NNW 5.8 mph - N/A   Clear
9:55 PM 57.2 °F - 37.4 °F 48% 30.04 in 10.0 mi NNW 5.8 mph - N/A   Clear
10:15 PM 55.4 °F - 37.4 °F 51% 30.04 in 10.0 mi Calm Calm - N/A   Clear
10:35 PM 53.6 °F - 39.2 °F 58% 30.04 in 10.0 mi SSE 3.5 mph - N/A   Clear
10:55 PM 51.8 °F - 37.4 °F 58% 30.04 in 10.0 mi SE 3.5 mph - N/A   Clear
11:15 PM 50.0 °F - 37.4 °F 62% 30.04 in 10.0 mi SSE 4.6 mph - N/A   Clear
11:35 PM 48.2 °F - 37.4 °F 66% 30.03 in 10.0 mi Calm Calm - N/A   Clear
11:55 PM 48.2 °F - 39.2 °F 71% 30.04 in 10.0 mi Calm Calm - N/A   Clear